Location: Asheville, NC
(35.6000°N, 82.5500°W)
Time: 05:34:13
(UTC-05:00)

Vanguard 2 Rocket - Pass Details

Date: 11 February 2018
Orbit: 555 x 3327 km, 32.9° (Epoch: 17 February)

Event Time Altitude Azimuth Distance (km) Brightness Sun altitude
Rises 23:51:27 0° 215° (SW) 5,703 - -65.4°
Reaches altitude 10° 23:55:01 10° 209° (SSW) 5,029 - -65.8°
Maximum altitude 00:09:37 44° 143° (SE) 3,878 - -67.1°
Exits shadow 00:26:39 13° 82° (E) 6,019 11.0 -68.1°
Drops below altitude 10° 00:27:55 10° 80° (E) 6,242 11.1 -68.1°
Sets 00:32:55 0° 75° (ENE) 7,141 11.5 -68.3°
